Aufgelaufene Messwerte:
Wetterdaten: aktuell Montag, 27.05.2024 00:05
Datum Zeit Temp. Feuchte Luftdruck Regen Wind WRichtung WRichtung Sonnenschein Verdunstung UV-Index Solar Taupunkt Windchill Windben Empfang
27.05.2024 00:05 15,9 C 96 % 1015,5 hPa 0,0 mm 5,7 km/h (1 Bft) SO 135 0 min 0,000 mm 0,0 UV-I 0 W/m 15,3 C 15,9 C 14,5 km/h (3 Bft) 98,26 %
27.05.2024 00:00 15,9 C 96 % 1015,5 hPa 0,0 mm 2,4 km/h (1 Bft) O 100 0 min 0,000 mm 0,0 UV-I 0 W/m 15,3 C 15,9 C 11,3 km/h (2 Bft) 100,00 %
26.05.2024 23:55 15,9 C 97 % 1015,4 hPa 0,0 mm 3,3 km/h (1 Bft) S-SO 166 0 min 0,000 mm 0,0 UV-I 0 W/m 15,4 C 15,9 C 9,7 km/h (2 Bft) 100,00 %
26.05.2024 23:50 15,8 C 97 % 1015,4 hPa 0,0 mm 2,5 km/h (1 Bft) O-SO 121 0 min 0,000 mm 0,0 UV-I 0 W/m 15,3 C 15,8 C 11,3 km/h (2 Bft) 99,10 %
26.05.2024 23:45 15,6 C 97 % 1015,5 hPa 0,0 mm 8,4 km/h (2 Bft) S-SO 162 0 min 0,000 mm 0,0 UV-I 0 W/m 15,1 C 15,6 C 25,7 km/h (4 Bft) 99,19 %
26.05.2024 23:40 15,3 C 96 % 1014,8 hPa 0,0 mm 0,0 km/h (0 Bft) O 100 0 min 0,000 mm 0,0 UV-I 0 W/m 14,7 C 15,3 C 0,0 km/h (0 Bft) 97,37 %
26.05.2024 23:35 15,2 C 96 % 1014,7 hPa 0,0 mm 0,0 km/h (0 Bft) O 100 0 min 0,000 mm 0,0 UV-I 0 W/m 14,6 C 15,2 C 0,0 km/h (0 Bft) 95,87 %
26.05.2024 23:30 15,2 C 97 % 1014,7 hPa 0,0 mm 0,0 km/h (0 Bft) O 100 0 min 0,000 mm 0,0 UV-I 0 W/m 14,7 C 15,2 C 0,0 km/h (0 Bft) 97,32 %
26.05.2024 23:25 15,2 C 97 % 1014,7 hPa 0,0 mm 0,0 km/h (0 Bft) O 100 0 min 0,000 mm 0,0 UV-I 0 W/m 14,7 C 15,2 C 0,0 km/h (0 Bft) 100,00 %
26.05.2024 23:20 15,1 C 97 % 1014,7 hPa 0,0 mm 0,0 km/h (0 Bft) O 100 0 min 0,000 mm 0,0 UV-I 0 W/m 14,6 C 15,1 C 0,0 km/h (0 Bft) 99,20 %
26.05.2024 23:15 15,1 C 97 % 1014,6 hPa 0,0 mm 0,0 km/h (0 Bft) O 100 0 min 0,000 mm 0,0 UV-I 0 W/m 14,6 C 15,1 C 0,0 km/h (0 Bft) 99,13 %
26.05.2024 23:10 15,1 C 97 % 1014,7 hPa 0,0 mm 0,0 km/h (0 Bft) O 100 0 min 0,000 mm 0,0 UV-I 0 W/m 14,6 C 15,1 C 0,0 km/h (0 Bft) 100,00 %
26.05.2024 23:05 14,9 C 96 % 1014,7 hPa 0,0 mm 0,0 km/h (0 Bft) O 100 0 min 0,000 mm 0,0 UV-I 0 W/m 14,3 C 14,9 C 0,0 km/h (0 Bft) 98,37 %
26.05.2024 23:00 14,9 C 96 % 1014,7 hPa 0,0 mm 0,0 km/h (0 Bft) O 100 0 min 0,000 mm 0,0 UV-I 0 W/m 14,3 C 14,9 C 0,0 km/h (0 Bft) 98,21 %
26.05.2024 22:55 14,9 C 96 % 1014,7 hPa 0,0 mm 0,0 km/h (0 Bft) O 100 0 min 0,000 mm 0,0 UV-I 0 W/m 14,3 C 14,9 C 0,0 km/h (0 Bft) 100,00 %
26.05.2024 22:50 15,1 C 96 % 1014,7 hPa 0,0 mm 0,0 km/h (0 Bft) O 100 0 min 0,000 mm 0,0 UV-I 0 W/m 14,5 C 15,1 C 0,0 km/h (0 Bft) 100,00 %
26.05.2024 22:45 15,1 C 96 % 1014,7 hPa 0,0 mm 0,0 km/h (0 Bft) O 100 0 min 0,000 mm 0,0 UV-I 0 W/m 14,5 C 15,1 C 0,0 km/h (0 Bft) 96,55 %
26.05.2024 22:40 15,1 C 96 % 1014,8 hPa 0,0 mm 0,0 km/h (0 Bft) O 100 0 min 0,000 mm 0,0 UV-I 0 W/m 14,5 C 15,1 C 0,0 km/h (0 Bft) 96,72 %
26.05.2024 22:35 15,0 C 96 % 1014,7 hPa 0,0 mm 0,0 km/h (0 Bft) O 100 0 min 0,000 mm 0,0 UV-I 0 W/m 14,4 C 15,0 C 0,0 km/h (0 Bft) 94,69 %
26.05.2024 22:30 14,9 C 96 % 1014,8 hPa 0,0 mm 0,0 km/h (0 Bft) O 100 0 min 0,000 mm 0,0 UV-I 0 W/m 14,3 C 14,9 C 0,0 km/h (0 Bft) 95,93 %
26.05.2024 22:25 14,9 C 96 % 1014,7 hPa 0,0 mm 0,0 km/h (0 Bft) O 100 0 min 0,000 mm 0,0 UV-I 0 W/m 14,3 C 14,9 C 0,0 km/h (0 Bft) 99,11 %
26.05.2024 22:20 14,9 C 96 % 1014,8 hPa 0,0 mm 0,0 km/h (0 Bft) O 100 0 min 0,000 mm 0,0 UV-I 0 W/m 14,3 C 14,9 C 0,0 km/h (0 Bft) 100,00 %
26.05.2024 22:15 14,8 C 96 % 1014,9 hPa 0,0 mm 0,0 km/h (0 Bft) O 100 0 min 0,000 mm 0,0 UV-I 0 W/m 14,2 C 14,8 C 0,0 km/h (0 Bft) 98,20 %
26.05.2024 22:10 14,8 C 96 % 1014,8 hPa 0,0 mm 0,0 km/h (0 Bft) O 100 0 min 0,000 mm 0,0 UV-I 0 W/m 14,2 C 14,8 C 0,0 km/h (0 Bft) 100,00 %
26.05.2024 22:05 14,8 C 96 % 1014,9 hPa 0,0 mm 0,0 km/h (0 Bft) O 100 0 min 0,000 mm 0,0 UV-I 0 W/m 14,2 C 14,8 C 0,0 km/h (0 Bft) 98,39 %
26.05.2024 22:00 14,9 C 96 % 1015,0 hPa 0,0 mm 0,0 km/h (0 Bft) O 100 0 min 0,000 mm 0,0 UV-I 0 W/m 14,3 C 14,9 C 0,0 km/h (0 Bft) 99,56 %
26.05.2024 21:50 15,1 C 96 % 1014,9 hPa 0,0 mm 0,0 km/h (0 Bft) O 100 0 min 0,000 mm 0,0 UV-I 0 W/m 14,5 C 15,1 C 0,0 km/h (0 Bft) 99,19 %
26.05.2024 21:45 15,1 C 96 % 1014,9 hPa 0,0 mm 0,1 km/h (0 Bft) O 100 0 min 0,000 mm 0,0 UV-I 0 W/m 14,5 C 15,1 C 1,6 km/h (1 Bft) 99,11 %
26.05.2024 21:40 15,1 C 96 % 1015,0 hPa 0,0 mm 0,0 km/h (0 Bft) O 100 0 min 0,000 mm 0,0 UV-I 0 W/m 14,5 C 15,1 C 0,0 km/h (0 Bft) 96,75 %
26.05.2024 21:35 15,2 C 96 % 1014,9 hPa 0,0 mm 0,0 km/h (0 Bft) O 100 0 min 0,000 mm 0,0 UV-I 3 W/m 14,6 C 15,2 C 0,0 km/h (0 Bft) 98,18 %
26.05.2024 21:30 15,3 C 96 % 1015,0 hPa 0,0 mm 0,0 km/h (0 Bft) O 100 0 min 0,000 mm 0,0 UV-I 5 W/m 14,7 C 15,3 C 1,6 km/h (1 Bft) 96,77 %
26.05.2024 21:25 15,3 C 96 % 1015,0 hPa 0,0 mm 0,0 km/h (0 Bft) O 100 0 min 0,000 mm 0,0 UV-I 8 W/m 14,7 C 15,3 C 0,0 km/h (0 Bft) 97,37 %
26.05.2024 21:20 15,4 C 95 % 1014,9 hPa 0,0 mm 0,0 km/h (0 Bft) O 100 0 min 0,000 mm 0,0 UV-I 11 W/m 14,6 C 15,4 C 0,0 km/h (0 Bft) 100,00 %
26.05.2024 21:15 15,6 C 95 % 1015,0 hPa 0,0 mm 0,1 km/h (0 Bft) O 100 5 min 0,000 mm 0,0 UV-I 12 W/m 14,8 C 15,6 C 1,6 km/h (1 Bft) 98,20 %
26.05.2024 21:10 15,6 C 95 % 1015,0 hPa 0,0 mm 0,0 km/h (0 Bft) O-SO 102 0 min 0,000 mm 0,0 UV-I 14 W/m 14,8 C 15,6 C 0,0 km/h (0 Bft) 100,00 %
26.05.2024 21:05 15,7 C 95 % 1015,0 hPa 0,0 mm 0,0 km/h (0 Bft) O-SO 102 0 min 0,000 mm 0,0 UV-I 14 W/m 14,9 C 15,7 C 0,0 km/h (0 Bft) 99,10 %
26.05.2024 21:00 15,7 C 95 % 1015,0 hPa 0,0 mm 0,1 km/h (0 Bft) O-SO 102 0 min 0,026 mm 0,0 UV-I 16 W/m 14,9 C 15,7 C 1,6 km/h (1 Bft) 98,39 %
26.05.2024 20:55 15,8 C 95 % 1015,0 hPa 0,0 mm 0,0 km/h (0 Bft) O-SO 110 0 min 0,000 mm 0,0 UV-I 18 W/m 15,0 C 15,8 C 0,0 km/h (0 Bft) 98,18 %
26.05.2024 20:50 15,9 C 95 % 1015,0 hPa 0,0 mm 0,0 km/h (0 Bft) O-SO 110 0 min 0,000 mm 0,0 UV-I 22 W/m 15,1 C 15,9 C 1,6 km/h (1 Bft) 100,00 %
26.05.2024 20:45 15,9 C 95 % 1015,1 hPa 0,0 mm 0,2 km/h (0 Bft) O-SO 110 0 min 0,000 mm 0,0 UV-I 26 W/m 15,1 C 15,9 C 3,2 km/h (1 Bft) 98,37 %
26.05.2024 20:40 16,0 C 95 % 1015,1 hPa 0,0 mm 0,0 km/h (0 Bft) NO 39 0 min 0,000 mm 0,0 UV-I 31 W/m 15,2 C 16,0 C 0,0 km/h (0 Bft) 97,32 %
26.05.2024 20:35 16,1 C 95 % 1015,0 hPa 0,0 mm 0,0 km/h (0 Bft) NO 39 0 min 0,000 mm 0,0 UV-I 32 W/m 15,3 C 16,1 C 0,0 km/h (0 Bft) 97,39 %
26.05.2024 20:30 16,1 C 95 % 1015,0 hPa 0,0 mm 0,1 km/h (0 Bft) NO 39 0 min 0,000 mm 0,0 UV-I 32 W/m 15,3 C 16,1 C 1,6 km/h (1 Bft) 97,54 %
26.05.2024 20:25 16,2 C 95 % 1015,2 hPa 0,0 mm 0,8 km/h (0 Bft) NO 39 0 min 0,000 mm 0,0 UV-I 37 W/m 15,4 C 16,2 C 6,4 km/h (2 Bft) 98,18 %
26.05.2024 20:20 16,2 C 95 % 1015,1 hPa 0,0 mm 0,0 km/h (0 Bft) NO 51 0 min 0,000 mm 0,0 UV-I 42 W/m 15,4 C 16,2 C 1,6 km/h (1 Bft) 99,20 %
26.05.2024 20:15 16,2 C 95 % 1015,1 hPa 0,0 mm 1,1 km/h (1 Bft) NO 51 0 min 0,000 mm 0,0 UV-I 39 W/m 15,4 C 16,2 C 4,8 km/h (1 Bft) 99,10 %
26.05.2024 20:10 16,2 C 95 % 1015,2 hPa 0,0 mm 0,3 km/h (0 Bft) NO 50 0 min 0,000 mm 0,0 UV-I 41 W/m 15,4 C 16,2 C 4,8 km/h (1 Bft) 100,00 %
26.05.2024 20:05 16,2 C 95 % 1015,3 hPa 0,0 mm 0,6 km/h (0 Bft) O-NO 59 0 min 0,000 mm 0,0 UV-I 42 W/m 15,4 C 16,2 C 3,2 km/h (1 Bft) 100,00 %
26.05.2024 20:00 16,3 C 95 % 1015,2 hPa 0,0 mm 0,9 km/h (0 Bft) O-NO 59 0 min 0,025 mm 0,0 UV-I 45 W/m 15,5 C 16,3 C 4,8 km/h (1 Bft) 98,20 %
26.05.2024 19:55 16,3 C 95 % 1015,2 hPa 0,0 mm 1,1 km/h (1 Bft) NO 46 0 min 0,000 mm 0,0 UV-I 51 W/m 15,5 C 16,3 C 6,4 km/h (2 Bft) 99,18 %
26.05.2024 19:50 16,3 C 95 % 1015,2 hPa 0,0 mm 0,7 km/h (0 Bft) NO 47 0 min 0,000 mm 0,0 UV-I 61 W/m 15,5 C 16,3 C 4,8 km/h (1 Bft) 98,20 %
26.05.2024 19:45 16,3 C 95 % 1015,2 hPa 0,0 mm 0,7 km/h (0 Bft) NO 51 0 min 0,000 mm 0,0 UV-I 77 W/m 15,5 C 16,3 C 4,8 km/h (1 Bft) 100,00 %
26.05.2024 19:40 16,3 C 94 % 1015,3 hPa 0,0 mm 0,4 km/h (0 Bft) O-NO 58 0 min 0,000 mm 0,0 UV-I 47 W/m 15,3 C 16,3 C 3,2 km/h (1 Bft) 97,30 %
26.05.2024 19:35 16,4 C 94 % 1015,3 hPa 0,0 mm 1,1 km/h (1 Bft) O-NO 59 0 min 0,000 mm 0,0 UV-I 48 W/m 15,4 C 16,4 C 4,8 km/h (1 Bft) 96,72 %
26.05.2024 19:30 16,4 C 94 % 1015,3 hPa 0,0 mm 1,9 km/h (1 Bft) N-NW 341 0 min 0,000 mm 0,0 UV-I 58 W/m 15,4 C 16,4 C 4,8 km/h (1 Bft) 97,58 %
26.05.2024 19:25 16,4 C 94 % 1015,3 hPa 0,0 mm 0,1 km/h (0 Bft) N-NO 13 0 min 0,000 mm 0,0 UV-I 59 W/m 15,4 C 16,4 C 1,6 km/h (1 Bft) 96,40 %
26.05.2024 19:20 16,6 C 93 % 1015,4 hPa 0,0 mm 3,9 km/h (1 Bft) N-NO 13 0 min 0,000 mm 0,0 UV-I 66 W/m 15,5 C 16,6 C 8,0 km/h (2 Bft) 98,20 %
26.05.2024 19:15 16,6 C 94 % 1015,4 hPa 0,0 mm 2,2 km/h (1 Bft) N 355 0 min 0,000 mm 0,0 UV-I 81 W/m 15,6 C 16,6 C 6,4 km/h (2 Bft) 97,64 %
26.05.2024 19:10 16,6 C 94 % 1015,5 hPa 0,0 mm 2,7 km/h (1 Bft) N 360 0 min 0,000 mm 0,0 UV-I 90 W/m 15,6 C 16,6 C 6,4 km/h (2 Bft) 96,43 %
26.05.2024 19:05 16,6 C 94 % 1015,6 hPa 0,0 mm 3,2 km/h (1 Bft) N 360 0 min 0,000 mm 0,0 UV-I 91 W/m 15,6 C 16,6 C 6,4 km/h (2 Bft) 100,00 %
26.05.2024 19:00 16,4 C 94 % 1015,7 hPa 0,0 mm 1,6 km/h (1 Bft) N 11 0 min 0,025 mm 0,0 UV-I 92 W/m 15,4 C 16,4 C 6,4 km/h (2 Bft) 100,00 %
26.05.2024 18:55 16,4 C 93 % 1015,7 hPa 0,0 mm 3,6 km/h (1 Bft) N 5 0 min 0,000 mm 0,0 UV-I 95 W/m 15,3 C 16,4 C 9,7 km/h (2 Bft) 100,00 %
26.05.2024 18:50 16,4 C 93 % 1015,7 hPa 0,0 mm 7,0 km/h (2 Bft) N 360 0 min 0,000 mm 0,0 UV-I 97 W/m 15,3 C 16,4 C 12,9 km/h (3 Bft) 100,00 %
26.05.2024 18:45 16,6 C 93 % 1015,9 hPa 0,0 mm 8,4 km/h (2 Bft) N 10 0 min 0,000 mm 0,0 UV-I 100 W/m 15,5 C 16,6 C 12,9 km/h (3 Bft) 98,18 %
26.05.2024 18:40 16,6 C 93 % 1016,0 hPa 0,0 mm 7,7 km/h (2 Bft) N-NW 339 0 min 0,000 mm 0,0 UV-I 95 W/m 15,5 C 16,6 C 12,9 km/h (3 Bft) 98,36 %
26.05.2024 18:35 16,4 C 93 % 1016,2 hPa 0,0 mm 3,5 km/h (1 Bft) N-NW 327 0 min 0,000 mm 0,0 UV-I 60 W/m 15,3 C 16,4 C 8,0 km/h (2 Bft) 96,43 %
26.05.2024 18:30 16,4 C 93 % 1016,1 hPa 0,2 mm 3,4 km/h (1 Bft) N 360 0 min 0,000 mm 0,0 UV-I 38 W/m 15,3 C 16,4 C 8,0 km/h (2 Bft) 97,62 %
26.05.2024 18:25 16,4 C 92 % 1016,2 hPa 0,2 mm 5,9 km/h (2 Bft) O-NO 57 0 min 0,000 mm 0,0 UV-I 23 W/m 15,1 C 16,4 C 17,7 km/h (3 Bft) 98,18 %
26.05.2024 18:20 16,7 C 91 % 1016,2 hPa 0,4 mm 4,0 km/h (1 Bft) W-NW 286 0 min 0,000 mm 0,0 UV-I 16 W/m 15,2 C 16,7 C 11,3 km/h (2 Bft) 99,19 %
26.05.2024 18:15 16,9 C 91 % 1016,1 hPa 0,4 mm 8,1 km/h (2 Bft) N-NO 13 0 min 0,000 mm 0,0 UV-I 14 W/m 15,4 C 16,9 C 16,1 km/h (3 Bft) 99,09 %
26.05.2024 18:10 17,1 C 90 % 1015,9 hPa 0,0 mm 4,6 km/h (1 Bft) W 270 0 min 0,000 mm 0,0 UV-I 16 W/m 15,4 C 17,1 C 14,5 km/h (3 Bft) 99,21 %
26.05.2024 18:05 17,2 C 90 % 1015,8 hPa 0,0 mm 5,0 km/h (1 Bft) N 360 0 min 0,051 mm 0,0 UV-I 23 W/m 15,5 C 17,2 C 8,0 km/h (2 Bft) 99,12 %
26.05.2024 18:00 17,4 C 89 % 1015,3 hPa 0,0 mm 3,4 km/h (1 Bft) N-NO 26 0 min 0,000 mm 0,0 UV-I 33 W/m 15,6 C 17,4 C 8,0 km/h (2 Bft) 100,00 %
26.05.2024 17:55 17,7 C 87 % 1015,4 hPa 0,0 mm 2,9 km/h (1 Bft) N 5 0 min 0,000 mm 0,0 UV-I 37 W/m 15,5 C 17,7 C 6,4 km/h (2 Bft) 99,19 %
26.05.2024 17:50 17,8 C 87 % 1015,4 hPa 0,0 mm 1,9 km/h (1 Bft) N 5 0 min 0,000 mm 0,0 UV-I 50 W/m 15,6 C 17,8 C 9,7 km/h (2 Bft) 98,20 %
26.05.2024 17:45 18,0 C 86 % 1015,3 hPa 0,0 mm 2,1 km/h (1 Bft) NO 35 0 min 0,000 mm 0,0 UV-I 65 W/m 15,6 C 18,0 C 9,7 km/h (2 Bft) 98,37 %
26.05.2024 17:40 18,1 C 85 % 1015,2 hPa 0,0 mm 4,1 km/h (1 Bft) NO 53 0 min 0,000 mm 0,0 UV-I 80 W/m 15,5 C 18,1 C 9,7 km/h (2 Bft) 98,21 %
26.05.2024 17:35 18,3 C 85 % 1015,1 hPa 0,0 mm 4,8 km/h (1 Bft) N-NO 27 0 min 0,000 mm 0,0 UV-I 74 W/m 15,7 C 18,3 C 8,0 km/h (2 Bft) 96,52 %
26.05.2024 17:30 18,3 C 84 % 1015,5 hPa 0,0 mm 2,0 km/h (1 Bft) NO 43 0 min 0,000 mm 0,0 UV-I 49 W/m 15,5 C 18,3 C 9,7 km/h (2 Bft) 97,56 %
26.05.2024 17:25 18,4 C 83 % 1015,6 hPa 0,0 mm 0,7 km/h (0 Bft) NO 56 0 min 0,000 mm 0,0 UV-I 52 W/m 15,5 C 18,4 C 6,4 km/h (2 Bft) 94,78 %
26.05.2024 17:20 18,4 C 83 % 1015,6 hPa 0,0 mm 0,8 km/h (0 Bft) N 360 0 min 0,000 mm 0,0 UV-I 88 W/m 15,5 C 18,4 C 6,4 km/h (2 Bft) 100,00 %
26.05.2024 17:15 18,4 C 83 % 1015,3 hPa 0,0 mm 2,2 km/h (1 Bft) N 5 0 min 0,000 mm 0,0 UV-I 116 W/m 15,5 C 18,4 C 11,3 km/h (2 Bft) 98,21 %
26.05.2024 17:10 18,3 C 83 % 1015,3 hPa 0,0 mm 3,2 km/h (1 Bft) N-NO 19 0 min 0,000 mm 0,0 UV-I 98 W/m 15,4 C 18,3 C 11,3 km/h (2 Bft) 100,00 %
26.05.2024 17:05 18,3 C 81 % 1015,6 hPa 0,0 mm 2,1 km/h (1 Bft) O-NO 67 0 min 0,000 mm 0,0 UV-I 75 W/m 15,0 C 18,3 C 12,9 km/h (3 Bft) 100,00 %
26.05.2024 17:00 18,4 C 80 % 1015,7 hPa 0,0 mm 4,6 km/h (1 Bft) NO 36 0 min 0,127 mm 0,0 UV-I 85 W/m 14,9 C 18,4 C 11,3 km/h (2 Bft) 100,00 %
26.05.2024 16:55 18,3 C 79 % 1015,7 hPa 0,0 mm 3,6 km/h (1 Bft) NO 47 0 min 0,000 mm 0,6 UV-I 126 W/m 14,6 C 18,3 C 12,9 km/h (3 Bft) 98,21 %
26.05.2024 16:50 18,3 C 79 % 1015,7 hPa 0,0 mm 5,9 km/h (2 Bft) NO 39 0 min 0,000 mm 0,9 UV-I 174 W/m 14,6 C 18,3 C 14,5 km/h (3 Bft) 99,12 %
26.05.2024 16:45 18,1 C 77 % 1015,7 hPa 0,0 mm 4,3 km/h (1 Bft) NO 47 0 min 0,000 mm 1,0 UV-I 193 W/m 14,0 C 18,1 C 11,3 km/h (2 Bft) 98,39 %
26.05.2024 16:40 18,2 C 75 % 1015,7 hPa 0,0 mm 8,3 km/h (2 Bft) N 360 0 min 0,000 mm 1,0 UV-I 200 W/m 13,7 C 18,2 C 17,7 km/h (3 Bft) 98,20 %
26.05.2024 16:35 18,2 C 75 % 1015,7 hPa 0,0 mm 14,7 km/h (3 Bft) N-NO 25 0 min 0,000 mm 1,1 UV-I 199 W/m 13,7 C 18,2 C 24,1 km/h (4 Bft) 97,56 %
26.05.2024 16:30 17,8 C 74 % 1015,8 hPa 0,0 mm 11,4 km/h (2 Bft) N-NW 340 0 min 0,000 mm 1,0 UV-I 198 W/m 13,1 C 17,8 C 17,7 km/h (3 Bft) 98,20 %
26.05.2024 16:25 17,9 C 72 % 1015,9 hPa 0,0 mm 7,4 km/h (2 Bft) N 360 0 min 0,000 mm 0,9 UV-I 186 W/m 12,8 C 17,9 C 12,9 km/h (3 Bft) 95,93 %
26.05.2024 16:20 17,5 C 75 % 1015,8 hPa 0,0 mm 6,0 km/h (2 Bft) NO 36 0 min 0,000 mm 0,8 UV-I 177 W/m 13,0 C 17,5 C 16,1 km/h (3 Bft) 98,21 %
26.05.2024 16:15 17,4 C 77 % 1015,9 hPa 0,0 mm 10,0 km/h (2 Bft) N 355 0 min 0,000 mm 0,8 UV-I 188 W/m 13,3 C 17,4 C 19,3 km/h (3 Bft) 99,19 %
26.05.2024 16:10 17,4 C 78 % 1016,1 hPa 0,0 mm 13,6 km/h (3 Bft) N 5 0 min 0,000 mm 0,5 UV-I 150 W/m 13,5 C 17,4 C 22,5 km/h (4 Bft) 98,21 %
26.05.2024 16:05 17,9 C 78 % 1016,1 hPa 0,0 mm 10,8 km/h (2 Bft) NW 319 0 min 0,000 mm 0,0 UV-I 80 W/m 14,0 C 17,9 C 20,9 km/h (4 Bft) 100,00 %
26.05.2024 16:00 18,8 C 75 % 1016,5 hPa 0,0 mm 10,0 km/h (2 Bft) N 355 0 min 0,051 mm 0,0 UV-I 24 W/m 14,3 C 18,8 C 17,7 km/h (3 Bft) 100,00 %
26.05.2024 15:55 19,1 C 77 % 1016,4 hPa 0,0 mm 2,7 km/h (1 Bft) W 279 0 min 0,000 mm 0,0 UV-I 14 W/m 15,0 C 19,1 C 6,4 km/h (2 Bft) 100,00 %
26.05.2024 15:50 19,3 C 78 % 1016,0 hPa 0,0 mm 4,9 km/h (1 Bft) N-NW 348 0 min 0,000 mm 0,0 UV-I 26 W/m 15,4 C 19,3 C 12,9 km/h (3 Bft) 100,00 %
26.05.2024 15:45 19,7 C 78 % 1015,7 hPa 0,0 mm 7,9 km/h (2 Bft) N 355 0 min 0,000 mm 0,0 UV-I 54 W/m 15,8 C 19,7 C 14,5 km/h (3 Bft) 100,00 %
26.05.2024 15:40 19,9 C 78 % 1015,8 hPa 0,0 mm 6,6 km/h (2 Bft) N-NW 329 0 min 0,000 mm 0,0 UV-I 58 W/m 15,9 C 19,9 C 11,3 km/h (2 Bft) 100,00 %
26.05.2024 15:35 19,9 C 81 % 1015,8 hPa 0,0 mm 3,4 km/h (1 Bft) N-NW 338 0 min 0,000 mm 0,0 UV-I 92 W/m 16,5 C 19,9 C 8,0 km/h (2 Bft) 96,75 %
26.05.2024 15:30 19,9 C 81 % 1015,7 hPa 0,0 mm 2,2 km/h (1 Bft) O-NO 61 0 min 0,000 mm 0,0 UV-I 73 W/m 16,5 C 19,9 C 8,0 km/h (2 Bft) 94,59 %
26.05.2024 15:25 19,8 C 80 % 1015,8 hPa 0,0 mm 2,6 km/h (1 Bft) O-NO 62 0 min 0,000 mm 0,0 UV-I 76 W/m 16,2 C 19,8 C 11,3 km/h (2 Bft) 97,56 %
26.05.2024 15:20 19,9 C 78 % 1015,7 hPa 0,0 mm 4,7 km/h (1 Bft) O-NO 59 0 min 0,000 mm 0,5 UV-I 107 W/m 15,9 C 19,9 C 12,9 km/h (3 Bft) 98,18 %
26.05.2024 15:15 20,1 C 77 % 1015,8 hPa 0,0 mm 4,1 km/h (1 Bft) N 360 0 min 0,000 mm 0,7 UV-I 123 W/m 15,9 C 20,1 C 14,5 km/h (3 Bft) 99,21 %
26.05.2024 15:10 20,3 C 75 % 1015,9 hPa 0,0 mm 4,7 km/h (1 Bft) O-NO 61 0 min 0,000 mm 1,0 UV-I 141 W/m 15,7 C 20,3 C 11,3 km/h (2 Bft) 100,00 %
26.05.2024 15:05 20,7 C 76 % 1015,6 hPa 0,0 mm 5,9 km/h (2 Bft) O-NO 74 0 min 0,000 mm 1,1 UV-I 154 W/m 16,3 C 20,7 C 14,5 km/h (3 Bft) 100,00 %
26.05.2024 15:00 21,2 C 77 % 1015,5 hPa 0,0 mm 2,9 km/h (1 Bft) N-NO 31 0 min 0,229 mm 1,2 UV-I 167 W/m 17,0 C 21,2 C 11,3 km/h (2 Bft) 99,19 %
26.05.2024 14:55 21,6 C 76 % 1015,5 hPa 0,0 mm 1,3 km/h (1 Bft) O-NO 67 0 min 0,000 mm 1,1 UV-I 168 W/m 17,2 C 21,6 C 6,4 km/h (2 Bft) 100,00 %
26.05.2024 14:50 22,2 C 75 % 1015,6 hPa 0,0 mm 2,7 km/h (1 Bft) N-NO 17 0 min 0,000 mm 1,0 UV-I 183 W/m 17,5 C 22,2 C 11,3 km/h (2 Bft) 99,20 %
26.05.2024 14:45 23,2 C 73 % 1015,8 hPa 0,0 mm 5,1 km/h (1 Bft) NO 44 5 min 0,000 mm 2,5 UV-I 662 W/m 18,1 C 23,2 C 12,9 km/h (3 Bft) 100,00 %
26.05.2024 14:40 23,3 C 71 % 1015,9 hPa 0,0 mm 6,0 km/h (2 Bft) N-NO 22 5 min 0,000 mm 3,6 UV-I 728 W/m 17,7 C 23,3 C 14,5 km/h (3 Bft) 100,00 %
26.05.2024 14:35 23,1 C 69 % 1016,1 hPa 0,0 mm 7,8 km/h (2 Bft) N-NW 348 5 min 0,000 mm 3,9 UV-I 807 W/m 17,1 C 23,1 C 16,1 km/h (3 Bft) 98,23 %
26.05.2024 14:30 22,3 C 75 % 1016,2 hPa 0,0 mm 3,6 km/h (1 Bft) N 5 0 min 0,000 mm 3,0 UV-I 345 W/m 17,6 C 22,3 C 11,3 km/h (2 Bft) 97,32 %
26.05.2024 14:25 21,7 C 78 % 1016,2 hPa 0,0 mm 0,9 km/h (0 Bft) S 187 0 min 0,000 mm 1,7 UV-I 251 W/m 17,7 C 21,7 C 4,8 km/h (1 Bft) 97,56 %
26.05.2024 14:20 21,6 C 79 % 1016,3 hPa 0,0 mm 0,0 km/h (0 Bft) O 91 0 min 0,000 mm 1,5 UV-I 210 W/m 17,8 C 21,6 C 1,6 km/h (1 Bft) 96,43 %
26.05.2024 14:15 21,7 C 74 % 1016,3 hPa 0,0 mm 1,0 km/h (0 Bft) O 91 0 min 0,000 mm 1,4 UV-I 180 W/m 16,9 C 21,7 C 4,8 km/h (1 Bft) 97,58 %
26.05.2024 14:10 22,0 C 75 % 1016,3 hPa 0,0 mm 0,6 km/h (0 Bft) S 169 0 min 0,000 mm 1,7 UV-I 232 W/m 17,4 C 22,0 C 3,2 km/h (1 Bft) 100,00 %
26.05.2024 14:05 22,6 C 71 % 1016,5 hPa 0,0 mm 0,9 km/h (0 Bft) O 101 0 min 0,000 mm 2,0 UV-I 251 W/m 17,1 C 22,6 C 4,8 km/h (1 Bft) 100,00 %
26.05.2024 14:00 23,9 C 68 % 1016,4 hPa 0,0 mm 0,4 km/h (0 Bft) N-NO 21 5 min 0,381 mm 3,8 UV-I 820 W/m 17,6 C 23,9 C 3,2 km/h (1 Bft) 99,11 %
26.05.2024 13:55 23,8 C 68 % 1016,6 hPa 0,0 mm 2,1 km/h (1 Bft) NO 55 5 min 0,000 mm 4,7 UV-I 934 W/m 17,5 C 23,8 C 6,4 km/h (2 Bft) 99,19 %
26.05.2024 13:50 23,6 C 72 % 1016,7 hPa 0,0 mm 0,7 km/h (0 Bft) NO 43 5 min 0,000 mm 4,8 UV-I 905 W/m 18,2 C 23,6 C 4,8 km/h (1 Bft) 100,00 %
26.05.2024 13:45 22,5 C 73 % 1016,6 hPa 0,0 mm 0,0 km/h (0 Bft) N 355 5 min 0,000 mm 3,5 UV-I 456 W/m 17,4 C 22,5 C 0,0 km/h (0 Bft) 98,36 %
26.05.2024 13:40 22,3 C 72 % 1016,7 hPa 0,0 mm 0,2 km/h (0 Bft) N 355 0 min 0,000 mm 2,4 UV-I 366 W/m 17,0 C 22,3 C 3,2 km/h (1 Bft) 99,11 %
26.05.2024 13:35 23,1 C 71 % 1016,7 hPa 0,0 mm 2,4 km/h (1 Bft) O 96 5 min 0,000 mm 3,7 UV-I 720 W/m 17,5 C 23,1 C 6,4 km/h (2 Bft) 99,12 %
26.05.2024 13:30 22,9 C 74 % 1016,7 hPa 0,0 mm 1,7 km/h (1 Bft) SO 124 5 min 0,000 mm 3,7 UV-I 728 W/m 18,0 C 22,9 C 4,8 km/h (1 Bft) 95,93 %
26.05.2024 13:25 22,9 C 77 % 1016,7 hPa 0,0 mm 0,6 km/h (0 Bft) S 185 5 min 0,000 mm 3,7 UV-I 719 W/m 18,6 C 22,9 C 3,2 km/h (1 Bft) 96,52 %
26.05.2024 13:20 22,6 C 77 % 1016,7 hPa 0,0 mm 0,5 km/h (0 Bft) S 186 5 min 0,000 mm 3,1 UV-I 479 W/m 18,4 C 22,6 C 8,0 km/h (2 Bft) 98,03 %
26.05.2024 13:15 21,7 C 83 % 1016,7 hPa 0,0 mm 0,0 km/h (0 Bft) S 187 1 min 0,000 mm 3,2 UV-I 564 W/m 18,7 C 21,7 C 8,0 km/h (2 Bft) 100,00 %
26.05.2024 13:14 21,6 C 80 % 1016,7 hPa 0,0 mm 0,0 km/h (0 Bft) S 187 0 min 0,000 mm 3,1 UV-I 316 W/m 18,0 C 21,6 C 8,0 km/h (2 Bft) 100,00 %
26.05.2024 13:05 22,2 C 76 % 1016,8 hPa 0,0 mm 0,6 km/h (0 Bft) O 99 0 min 0,431 mm 3,1 UV-I 371 W/m 17,8 C 22,2 C 3,2 km/h (1 Bft) 100,00 %
26.05.2024 13:00 22,3 C 74 % 1016,9 hPa 0,0 mm 1,1 km/h (1 Bft) S-SW 209 0 min 0,000 mm 3,6 UV-I 372 W/m 17,4 C 22,3 C 8,0 km/h (2 Bft) 100,00 %
26.05.2024 12:55 22,9 C 73 % 1016,9 hPa 0,0 mm 1,8 km/h (1 Bft) S-SO 161 5 min 0,000 mm 3,8 UV-I 863 W/m 17,8 C 22,9 C 8,0 km/h (2 Bft) 100,00 %
26.05.2024 12:50 23,1 C 74 % 1016,9 hPa 0,0 mm 2,6 km/h (1 Bft) S-SW 194 5 min 0,000 mm 4,3 UV-I 710 W/m 18,2 C 23,1 C 9,7 km/h (2 Bft) 98,25 %
26.05.2024 12:45 22,3 C 72 % 1016,9 hPa 0,0 mm 0,2 km/h (0 Bft) O-NO 59 5 min 0,000 mm 3,5 UV-I 701 W/m 17,0 C 22,3 C 1,6 km/h (1 Bft) 97,35 %
26.05.2024 12:40 22,1 C 77 % 1016,8 hPa 0,0 mm 0,9 km/h (0 Bft) O-NO 59 10 min 0,000 mm 3,4 UV-I 588 W/m 17,9 C 22,1 C 4,8 km/h (1 Bft) 99,59 %
26.05.2024 12:30 22,8 C 73 % 1016,8 hPa 0,0 mm 2,3 km/h (1 Bft) SW 230 5 min 0,000 mm 4,2 UV-I 847 W/m 17,7 C 22,8 C 9,7 km/h (2 Bft) 98,21 %
26.05.2024 12:25 22,8 C 74 % 1016,9 hPa 0,0 mm 4,6 km/h (1 Bft) S 190 5 min 0,000 mm 4,3 UV-I 824 W/m 17,9 C 22,8 C 9,7 km/h (2 Bft) 97,41 %
26.05.2024 12:20 22,3 C 67 % 1016,9 hPa 0,0 mm 2,3 km/h (1 Bft) S 187 5 min 0,000 mm 4,2 UV-I 788 W/m 15,9 C 22,3 C 8,0 km/h (2 Bft) 97,58 %
26.05.2024 12:15 21,9 C 77 % 1016,8 hPa 0,0 mm 1,1 km/h (1 Bft) S-SW 194 5 min 0,000 mm 4,2 UV-I 783 W/m 17,7 C 21,9 C 8,0 km/h (2 Bft) 98,21 %
26.05.2024 12:10 22,0 C 74 % 1016,9 hPa 0,0 mm 0,6 km/h (0 Bft) S-SO 147 5 min 0,000 mm 4,1 UV-I 795 W/m 17,1 C 22,0 C 4,8 km/h (1 Bft) 98,37 %
26.05.2024 12:05 21,8 C 77 % 1016,8 hPa 0,0 mm 0,7 km/h (0 Bft) NO 48 5 min 0,000 mm 4,2 UV-I 840 W/m 17,6 C 21,8 C 4,8 km/h (1 Bft) 100,00 %
26.05.2024 12:00 21,3 C 79 % 1016,8 hPa 0,0 mm 1,7 km/h (1 Bft) N-NW 341 5 min 0,356 mm 4,1 UV-I 821 W/m 17,5 C 21,3 C 6,4 km/h (2 Bft) 98,28 %
26.05.2024 11:55 20,6 C 82 % 1016,9 hPa 0,0 mm 0,4 km/h (0 Bft) SO 142 0 min 0,000 mm 3,0 UV-I 272 W/m 17,4 C 20,6 C 3,2 km/h (1 Bft) 99,19 %
26.05.2024 11:50 20,8 C 77 % 1016,9 hPa 0,0 mm 0,7 km/h (0 Bft) SO 136 0 min 0,000 mm 2,9 UV-I 411 W/m 16,6 C 20,8 C 3,2 km/h (1 Bft) 99,12 %
26.05.2024 11:45 21,1 C 81 % 1016,9 hPa 0,0 mm 0,3 km/h (0 Bft) NW 321 5 min 0,000 mm 3,9 UV-I 785 W/m 17,7 C 21,1 C 3,2 km/h (1 Bft) 98,21 %
26.05.2024 11:40 20,4 C 78 % 1016,9 hPa 0,0 mm 0,4 km/h (0 Bft) NW 321 5 min 0,000 mm 3,6 UV-I 782 W/m 16,4 C 20,4 C 3,2 km/h (1 Bft) 100,00 %
26.05.2024 11:35 20,7 C 82 % 1017,0 hPa 0,0 mm 1,9 km/h (1 Bft) NW 321 5 min 0,000 mm 3,3 UV-I 703 W/m 17,5 C 20,7 C 6,4 km/h (2 Bft) 100,00 %
26.05.2024 11:30 20,6 C 84 % 1017,1 hPa 0,0 mm 4,1 km/h (1 Bft) N-NO 12 5 min 0,000 mm 3,3 UV-I 694 W/m 17,8 C 20,6 C 8,0 km/h (2 Bft) 97,58 %
26.05.2024 11:25 20,2 C 83 % 1017,0 hPa 0,0 mm 1,0 km/h (0 Bft) N 360 5 min 0,000 mm 3,1 UV-I 507 W/m 17,2 C 20,2 C 4,8 km/h (1 Bft) 97,41 %
26.05.2024 11:20 20,3 C 83 % 1017,1 hPa 0,0 mm 4,9 km/h (1 Bft) N 9 5 min 0,000 mm 2,6 UV-I 571 W/m 17,3 C 20,3 C 9,7 km/h (2 Bft) 96,49 %
26.05.2024 11:15 20,7 C 84 % 1017,1 hPa 0,0 mm 7,8 km/h (2 Bft) N-NO 18 5 min 0,000 mm 3,6 UV-I 811 W/m 17,9 C 20,7 C 11,3 km/h (2 Bft) 98,20 %
26.05.2024 11:10 20,3 C 86 % 1017,1 hPa 0,0 mm 4,1 km/h (1 Bft) NW 318 5 min 0,000 mm 3,7 UV-I 748 W/m 17,9 C 20,3 C 9,7 km/h (2 Bft) 99,22 %
26.05.2024 11:05 19,1 C 89 % 1017,2 hPa 0,0 mm 3,4 km/h (1 Bft) N 355 0 min 0,000 mm 2,2 UV-I 278 W/m 17,2 C 19,1 C 8,0 km/h (2 Bft) 100,00 %
26.05.2024 11:00 19,2 C 88 % 1017,1 hPa 0,0 mm 2,4 km/h (1 Bft) N-NO 15 5 min 0,279 mm 2,5 UV-I 564 W/m 17,2 C 19,2 C 4,8 km/h (1 Bft) 99,13 %
26.05.2024 10:55 19,3 C 89 % 1017,2 hPa 0,0 mm 2,2 km/h (1 Bft) N-NO 28 5 min 0,000 mm 2,4 UV-I 399 W/m 17,4 C 19,3 C 6,4 km/h (2 Bft) 99,11 %
26.05.2024 10:50 19,1 C 92 % 1017,3 hPa 0,0 mm 1,3 km/h (1 Bft) N 11 5 min 0,000 mm 2,5 UV-I 403 W/m 17,8 C 19,1 C 4,8 km/h (1 Bft) 99,19 %
26.05.2024 10:45 18,8 C 89 % 1017,3 hPa 0,0 mm 2,3 km/h (1 Bft) N-NW 337 0 min 0,000 mm 1,5 UV-I 206 W/m 16,9 C 18,8 C 6,4 km/h (2 Bft) 98,20 %
26.05.2024 10:40 18,8 C 88 % 1017,3 hPa 0,0 mm 3,5 km/h (1 Bft) NW 308 0 min 0,000 mm 1,4 UV-I 215 W/m 16,8 C 18,8 C 6,4 km/h (2 Bft) 99,20 %
26.05.2024 10:35 19,4 C 88 % 1017,3 hPa 0,0 mm 5,3 km/h (1 Bft) NO 49 0 min 0,000 mm 1,6 UV-I 295 W/m 17,4 C 19,4 C 8,0 km/h (2 Bft) 100,00 %
26.05.2024 10:30 19,8 C 89 % 1017,3 hPa 0,0 mm 3,1 km/h (1 Bft) N-NW 348 5 min 0,000 mm 2,3 UV-I 617 W/m 17,9 C 19,8 C 6,4 km/h (2 Bft) 98,36 %
26.05.2024 10:25 19,6 C 92 % 1017,3 hPa 0,0 mm 2,8 km/h (1 Bft) NW 322 5 min 0,000 mm 2,4 UV-I 525 W/m 18,3 C 19,6 C 6,4 km/h (2 Bft) 97,32 %
26.05.2024 10:20 19,7 C 90 % 1017,3 hPa 0,0 mm 4,0 km/h (1 Bft) N-NW 338 5 min 0,000 mm 2,4 UV-I 542 W/m 18,0 C 19,7 C 6,4 km/h (2 Bft) 98,37 %
26.05.2024 10:15 18,9 C 90 % 1017,2 hPa 0,0 mm 0,5 km/h (0 Bft) N 5 5 min 0,000 mm 2,5 UV-I 623 W/m 17,2 C 18,9 C 3,2 km/h (1 Bft) 97,32 %
26.05.2024 10:10 18,8 C 90 % 1017,3 hPa 0,0 mm 2,5 km/h (1 Bft) N 11 5 min 0,000 mm 2,7 UV-I 707 W/m 17,1 C 18,8 C 6,4 km/h (2 Bft) 97,56 %
26.05.2024 10:05 18,8 C 92 % 1017,3 hPa 0,0 mm 2,8 km/h (1 Bft) NW 323 5 min 0,254 mm 2,4 UV-I 586 W/m 17,5 C 18,8 C 4,8 km/h (1 Bft) 99,11 %
26.05.2024 10:00 18,7 C 93 % 1017,2 hPa 0,0 mm 2,0 km/h (1 Bft) NW 313 5 min 0,000 mm 2,2 UV-I 475 W/m 17,5 C 18,7 C 4,8 km/h (1 Bft) 99,19 %
26.05.2024 09:55 18,4 C 94 % 1017,2 hPa 0,0 mm 3,6 km/h (1 Bft) NW 316 5 min 0,000 mm 2,3 UV-I 715 W/m 17,4 C 18,4 C 6,4 km/h (2 Bft) 99,11 %
26.05.2024 09:50 18,4 C 96 % 1017,2 hPa 0,0 mm 1,1 km/h (1 Bft) N 350 5 min 0,000 mm 2,2 UV-I 641 W/m 17,7 C 18,4 C 4,8 km/h (1 Bft) 99,10 %
26.05.2024 09:45 17,8 C 96 % 1017,2 hPa 0,0 mm 0,2 km/h (0 Bft) N 355 5 min 0,000 mm 1,9 UV-I 400 W/m 17,2 C 17,8 C 1,6 km/h (1 Bft) 99,19 %
26.05.2024 09:40 17,3 C 95 % 1017,1 hPa 0,0 mm 1,8 km/h (1 Bft) N 355 0 min 0,000 mm 1,5 UV-I 297 W/m 16,5 C 17,3 C 4,8 km/h (1 Bft) 99,18 %
26.05.2024 09:35 17,3 C 96 % 1017,1 hPa 0,0 mm 2,1 km/h (1 Bft) N-NW 335 5 min 0,000 mm 1,4 UV-I 325 W/m 16,7 C 17,3 C 4,8 km/h (1 Bft) 98,29 %
26.05.2024 09:30 17,3 C 97 % 1017,2 hPa 0,0 mm 1,1 km/h (1 Bft) N-NW 338 5 min 0,000 mm 2,0 UV-I 709 W/m 16,8 C 17,3 C 4,8 km/h (1 Bft) 95,45 %
26.05.2024 09:25 16,8 C 97 % 1017,3 hPa 0,2 mm 0,0 km/h (0 Bft) N 5 0 min 0,000 mm 1,7 UV-I 304 W/m 16,3 C 16,8 C 1,6 km/h (1 Bft) 95,93 %
26.05.2024 09:20 16,6 C 97 % 1017,5 hPa 0,0 mm 0,1 km/h (0 Bft) N 5 0 min 0,000 mm 1,2 UV-I 281 W/m 16,1 C 16,6 C 1,6 km/h (1 Bft) 96,49 %
26.05.2024 09:15 16,4 C 97 % 1017,4 hPa 0,0 mm 1,1 km/h (1 Bft) N 5 5 min 0,000 mm 1,4 UV-I 442 W/m 15,9 C 16,4 C 4,8 km/h (1 Bft) 98,20 %
26.05.2024 09:10 16,4 C 97 % 1017,5 hPa 0,0 mm 1,8 km/h (1 Bft) NO 34 5 min 0,000 mm 1,2 UV-I 353 W/m 15,9 C 16,4 C 4,8 km/h (1 Bft) 99,19 %
26.05.2024 09:05 16,2 C 97 % 1017,5 hPa 0,0 mm 0,4 km/h (0 Bft) O-NO 59 5 min 0,000 mm 1,1 UV-I 330 W/m 15,7 C 16,2 C 1,6 km/h (1 Bft) 100,00 %
26.05.2024 09:00 15,8 C 97 % 1017,6 hPa 0,0 mm 0,2 km/h (0 Bft) S 175 0 min 0,051 mm 0,8 UV-I 242 W/m 15,3 C 15,8 C 1,6 km/h (1 Bft) 99,13 %
26.05.2024 08:55 15,6 C 97 % 1017,6 hPa 0,0 mm 0,0 km/h (0 Bft) S 187 0 min 0,000 mm 0,6 UV-I 174 W/m 15,1 C 15,6 C 0,0 km/h (0 Bft) 98,39 %
26.05.2024 08:50 15,5 C 97 % 1017,6 hPa 0,0 mm 0,0 km/h (0 Bft) S 187 0 min 0,000 mm 0,3 UV-I 148 W/m 15,0 C 15,5 C 0,0 km/h (0 Bft) 99,11 %
26.05.2024 08:45 15,3 C 97 % 1017,6 hPa 0,0 mm 0,0 km/h (0 Bft) S 187 0 min 0,000 mm 0,0 UV-I 120 W/m 14,8 C 15,3 C 0,0 km/h (0 Bft) 100,00 %
26.05.2024 08:40 15,2 C 97 % 1017,8 hPa 0,0 mm 0,0 km/h (0 Bft) S 187 0 min 0,000 mm 0,0 UV-I 95 W/m 14,7 C 15,2 C 0,0 km/h (0 Bft) 99,11 %
26.05.2024 08:35 15,1 C 97 % 1017,7 hPa 0,4 mm 0,0 km/h (0 Bft) S 187 0 min 0,001 mm 0,0 UV-I 80 W/m 14,6 C 15,1 C 0,0 km/h (0 Bft) 97,99 %
26.05.2024 08:25 14,9 C 96 % 1017,9 hPa 0,2 mm 0,0 km/h (0 Bft) N 0 0 min 0,000 mm 0,0 UV-I 47 W/m 14,3 C 14,9 C 0,0 km/h (0 Bft) 99,12 %
26.05.2024 08:20 15,0 C 97 % 1017,9 hPa 0,2 mm 0,0 km/h (0 Bft) N 0 0 min 0,000 mm 0,0 UV-I 46 W/m 14,5 C 15,0 C 0,0 km/h (0 Bft) 87,72 %
26.05.2024 08:15 14,9 C 97 % 1018,0 hPa 0,2 mm 0,0 km/h (0 Bft) N 0 0 min 0,000 mm 0,0 UV-I 43 W/m 14,4 C 14,9 C 0,0 km/h (0 Bft) 99,12 %
26.05.2024 08:10 14,8 C 96 % 1018,0 hPa 0,2 mm 0,0 km/h (0 Bft) N 0 0 min 0,000 mm 0,0 UV-I 37 W/m 14,2 C 14,8 C 0,0 km/h (0 Bft) 97,37 %
26.05.2024 08:05 14,8 C 96 % 1018,1 hPa 0,4 mm 0,0 km/h (0 Bft) N 0 0 min 0,000 mm 0,0 UV-I 29 W/m 14,2 C 14,8 C 0,0 km/h (0 Bft) 95,61 %
26.05.2024 08:00 14,8 C 96 % 1018,1 hPa 0,0 mm 0,0 km/h (0 Bft) N 0 0 min 0,025 mm 0,0 UV-I 24 W/m 14,2 C 14,8 C 0,0 km/h (0 Bft) 97,37 %
26.05.2024 07:55 14,8 C 96 % 1018,2 hPa 0,2 mm 0,0 km/h (0 Bft) N 0 0 min 0,000 mm 0,0 UV-I 24 W/m 14,2 C 14,8 C 0,0 km/h (0 Bft) 99,12 %
26.05.2024 07:50 14,8 C 96 % 1018,2 hPa 0,2 mm 0,0 km/h (0 Bft) N 0 0 min 0,000 mm 0,0 UV-I 26 W/m 14,2 C 14,8 C 0,0 km/h (0 Bft) 100,00 %
26.05.2024 07:45 14,8 C 96 % 1018,2 hPa 0,0 mm 0,0 km/h (0 Bft) N 0 0 min 0,000 mm 0,0 UV-I 26 W/m 14,2 C 14,8 C 0,0 km/h (0 Bft) 98,25 %
26.05.2024 07:40 14,8 C 96 % 1018,0 hPa 0,0 mm 0,0 km/h (0 Bft) N 0 0 min 0,000 mm 0,0 UV-I 28 W/m 14,2 C 14,8 C 0,0 km/h (0 Bft) 100,00 %
26.05.2024 07:35 14,8 C 96 % 1017,9 hPa 0,0 mm 0,0 km/h (0 Bft) S 180 0 min 0,000 mm 0,0 UV-I 29 W/m 14,2 C 14,8 C 3,2 km/h (1 Bft) 100,00 %
26.05.2024 07:30 14,8 C 96 % 1017,9 hPa 0,0 mm 0,0 km/h (0 Bft) S 180 0 min 0,000 mm 0,0 UV-I 30 W/m 14,2 C 14,8 C 4,8 km/h (1 Bft) 100,00 %
26.05.2024 07:25 14,9 C 96 % 1017,9 hPa 0,0 mm 3,2 km/h (1 Bft) S-SO 157 0 min 0,000 mm 0,0 UV-I 42 W/m 14,3 C 14,9 C 8,0 km/h (2 Bft) 99,12 %
26.05.2024 07:20 15,0 C 96 % 1017,8 hPa 0,0 mm 1,6 km/h (1 Bft) S-SO 157 0 min 0,000 mm 0,0 UV-I 46 W/m 14,4 C 15,0 C 6,4 km/h (2 Bft) 100,00 %
26.05.2024 07:15 15,0 C 96 % 1017,7 hPa 0,0 mm 0,0 km/h (0 Bft) O-NO 67 0 min 0,000 mm 0,0 UV-I 39 W/m 14,4 C 15,0 C 3,2 km/h (1 Bft) 99,12 %
26.05.2024 07:10 14,9 C 96 % 1017,6 hPa 0,0 mm 0,0 km/h (0 Bft) O-NO 67 0 min 0,000 mm 0,0 UV-I 41 W/m 14,3 C 14,9 C 3,2 km/h (1 Bft) 97,37 %
26.05.2024 07:05 14,9 C 96 % 1017,4 hPa 0,0 mm 0,0 km/h (0 Bft) O-NO 67 0 min 0,000 mm 0,0 UV-I 52 W/m 14,3 C 14,9 C 1,6 km/h (1 Bft) 96,49 %
26.05.2024 07:00 14,8 C 96 % 1017,3 hPa 0,0 mm 0,0 km/h (0 Bft) N 0 0 min 0,025 mm 0,0 UV-I 58 W/m 14,2 C 14,8 C 0,0 km/h (0 Bft) 95,61 %
26.05.2024 06:55 14,7 C 96 % 1017,2 hPa 0,0 mm 0,0 km/h (0 Bft) N 0 0 min 0,000 mm 0,0 UV-I 60 W/m 14,1 C 14,7 C 0,0 km/h (0 Bft) 95,61 %
26.05.2024 06:50 14,7 C 96 % 1017,1 hPa 0,0 mm 0,0 km/h (0 Bft) N 0 0 min 0,000 mm 0,0 UV-I 66 W/m 14,1 C 14,7 C 0,0 km/h (0 Bft) 100,00 %
26.05.2024 06:45 14,6 C 96 % 1017,1 hPa 0,0 mm 0,0 km/h (0 Bft) N 0 0 min 0,000 mm 0,0 UV-I 68 W/m 14,0 C 14,6 C 0,0 km/h (0 Bft) 100,00 %
26.05.2024 06:40 14,5 C 96 % 1017,2 hPa 0,0 mm 0,0 km/h (0 Bft) N 0 0 min 0,000 mm 0,0 UV-I 56 W/m 13,9 C 14,5 C 0,0 km/h (0 Bft) 99,12 %
26.05.2024 06:35 14,4 C 96 % 1017,2 hPa 0,0 mm 0,0 km/h (0 Bft) N 0 0 min 0,000 mm 0,0 UV-I 48 W/m 13,8 C 14,4 C 0,0 km/h (0 Bft) 100,00 %
26.05.2024 06:30 14,4 C 96 % 1017,2 hPa 0,0 mm 1,6 km/h (1 Bft) O-NO 67 0 min 0,000 mm 0,0 UV-I 44 W/m 13,8 C 14,4 C 3,2 km/h (1 Bft) 100,00 %
26.05.2024 06:25 14,4 C 96 % 1017,0 hPa 0,0 mm 1,6 km/h (1 Bft) O-NO 67 0 min 0,000 mm 0,0 UV-I 43 W/m 13,8 C 14,4 C 3,2 km/h (1 Bft) 98,25 %
26.05.2024 06:20 14,4 C 96 % 1016,9 hPa 0,0 mm 0,0 km/h (0 Bft) N 0 0 min 0,000 mm 0,0 UV-I 39 W/m 13,8 C 14,4 C 0,0 km/h (0 Bft) 98,25 %
26.05.2024 06:15 14,3 C 96 % 1016,9 hPa 0,0 mm 0,0 km/h (0 Bft) O 90 0 min 0,000 mm 0,0 UV-I 35 W/m 13,7 C 14,3 C 3,2 km/h (1 Bft) 100,00 %
26.05.2024 06:10 14,3 C 96 % 1016,8 hPa 0,0 mm 0,0 km/h (0 Bft) N 0 0 min 0,000 mm 0,0 UV-I 32 W/m 13,7 C 14,3 C 0,0 km/h (0 Bft) 98,25 %
26.05.2024 06:05 14,2 C 96 % 1016,8 hPa 0,0 mm 0,0 km/h (0 Bft) N 0 0 min 0,000 mm 0,0 UV-I 30 W/m 13,6 C 14,2 C 0,0 km/h (0 Bft) 98,25 %
26.05.2024 06:00 14,1 C 96 % 1016,9 hPa 0,0 mm 0,0 km/h (0 Bft) N-NW 337 0 min 0,000 mm 0,0 UV-I 28 W/m 13,5 C 14,1 C 1,6 km/h (1 Bft) 96,49 %
26.05.2024 05:55 14,1 C 96 % 1016,9 hPa 0,0 mm 0,0 km/h (0 Bft) N-NW 337 0 min 0,000 mm 0,0 UV-I 28 W/m 13,5 C 14,1 C 1,6 km/h (1 Bft) 96,49 %
26.05.2024 05:50 14,1 C 96 % 1016,9 hPa 0,0 mm 0,0 km/h (0 Bft) N 0 0 min 0,000 mm 0,0 UV-I 26 W/m 13,5 C 14,1 C 0,0 km/h (0 Bft) 97,37 %
26.05.2024 05:45 14,1 C 96 % 1016,8 hPa 0,0 mm 0,0 km/h (0 Bft) N 0 0 min 0,000 mm 0,0 UV-I 23 W/m 13,5 C 14,1 C 0,0 km/h (0 Bft) 99,12 %
26.05.2024 05:40 14,1 C 96 % 1016,8 hPa 0,0 mm 0,0 km/h (0 Bft) N 0 0 min 0,000 mm 0,0 UV-I 20 W/m 13,5 C 14,1 C 0,0 km/h (0 Bft) 99,12 %
26.05.2024 05:35 14,0 C 97 % 1016,8 hPa 0,0 mm 0,0 km/h (0 Bft) N-NW 337 0 min 0,000 mm 0,0 UV-I 17 W/m 13,5 C 14,0 C 3,2 km/h (1 Bft) 100,00 %
26.05.2024 05:30 13,8 C 97 % 1016,8 hPa 0,0 mm 0,0 km/h (0 Bft) N-NW 337 0 min 0,000 mm 0,0 UV-I 14 W/m 13,3 C 13,8 C 3,2 km/h (1 Bft) 98,25 %
26.05.2024 05:25 13,6 C 96 % 1016,8 hPa 0,0 mm 0,0 km/h (0 Bft) N-NW 337 0 min 0,000 mm 0,0 UV-I 12 W/m 13,0 C 13,6 C 3,2 km/h (1 Bft) 98,25 %
26.05.2024 05:20 13,6 C 96 % 1016,8 hPa 0,0 mm 0,0 km/h (0 Bft) N 0 0 min 0,000 mm 0,0 UV-I 11 W/m 13,0 C 13,6 C 0,0 km/h (0 Bft) 100,00 %
26.05.2024 05:15 13,5 C 96 % 1016,8 hPa 0,0 mm 0,0 km/h (0 Bft) N-NW 337 0 min 0,000 mm 0,0 UV-I 9 W/m 12,9 C 13,5 C 3,2 km/h (1 Bft) 98,25 %
26.05.2024 05:10 13,3 C 96 % 1016,9 hPa 0,0 mm 0,0 km/h (0 Bft) N 0 0 min 0,000 mm 0,0 UV-I 6 W/m 12,7 C 13,3 C 0,0 km/h (0 Bft) 100,00 %
26.05.2024 05:05 13,3 C 96 % 1016,9 hPa 0,0 mm 0,0 km/h (0 Bft) N 0 0 min 0,000 mm 0,0 UV-I 3 W/m 12,7 C 13,3 C 0,0 km/h (0 Bft) 96,49 %
26.05.2024 05:00 13,4 C 96 % 1016,8 hPa 0,0 mm 0,0 km/h (0 Bft) N 0 0 min 0,000 mm 0,0 UV-I 0 W/m 12,8 C 13,4 C 0,0 km/h (0 Bft) 97,37 %
26.05.2024 04:55 13,5 C 96 % 1016,8 hPa 0,0 mm 0,0 km/h (0 Bft) W-SW 247 0 min 0,000 mm 0,0 UV-I 0 W/m 12,9 C 13,5 C 1,6 km/h (1 Bft) 97,37 %
26.05.2024 04:50 13,6 C 96 % 1016,9 hPa 0,0 mm 0,0 km/h (0 Bft) N 0 0 min 0,000 mm 0,0 UV-I 0 W/m 13,0 C 13,6 C 0,0 km/h (0 Bft) 96,49 %
26.05.2024 04:45 13,6 C 96 % 1016,9 hPa 0,0 mm 0,0 km/h (0 Bft) N 0 0 min 0,000 mm 0,0 UV-I 0 W/m 13,0 C 13,6 C 0,0 km/h (0 Bft) 100,00 %
26.05.2024 04:40 13,4 C 96 % 1017,0 hPa 0,0 mm 0,0 km/h (0 Bft) N 0 0 min 0,000 mm 0,0 UV-I 0 W/m 12,8 C 13,4 C 0,0 km/h (0 Bft) 98,25 %
26.05.2024 04:35 13,4 C 96 % 1017,0 hPa 0,0 mm 0,0 km/h (0 Bft) N 0 0 min 0,000 mm 0,0 UV-I 0 W/m 12,8 C 13,4 C 0,0 km/h (0 Bft) 98,25 %
26.05.2024 04:30 13,6 C 96 % 1017,2 hPa 0,0 mm 0,0 km/h (0 Bft) N 0 0 min 0,000 mm 0,0 UV-I 0 W/m 13,0 C 13,6 C 0,0 km/h (0 Bft) 98,25 %
26.05.2024 04:25 13,7 C 96 % 1017,3 hPa 0,0 mm 0,0 km/h (0 Bft) W-SW 247 0 min 0,000 mm 0,0 UV-I 0 W/m 13,1 C 13,7 C 3,2 km/h (1 Bft) 100,00 %
26.05.2024 04:20 13,8 C 96 % 1017,2 hPa 0,0 mm 0,0 km/h (0 Bft) W-SW 247 0 min 0,000 mm 0,0 UV-I 0 W/m 13,2 C 13,8 C 1,6 km/h (1 Bft) 99,12 %
26.05.2024 04:15 13,7 C 96 % 1017,3 hPa 0,0 mm 0,0 km/h (0 Bft) W-SW 247 0 min 0,000 mm 0,0 UV-I 0 W/m 13,1 C 13,7 C 3,2 km/h (1 Bft) 98,25 %
26.05.2024 04:10 13,6 C 96 % 1017,3 hPa 0,0 mm 0,0 km/h (0 Bft) W-SW 247 0 min 0,000 mm 0,0 UV-I 0 W/m 13,0 C 13,6 C 1,6 km/h (1 Bft) 100,00 %
26.05.2024 04:05 13,5 C 96 % 1017,2 hPa 0,0 mm 0,0 km/h (0 Bft) W-SW 247 0 min 0,000 mm 0,0 UV-I 0 W/m 12,9 C 13,5 C 1,6 km/h (1 Bft) 88,60 %
26.05.2024 04:00 13,6 C 96 % 1017,2 hPa 0,0 mm 0,0 km/h (0 Bft) N 0 0 min 0,000 mm 0,0 UV-I 0 W/m 13,0 C 13,6 C 0,0 km/h (0 Bft) 96,49 %
26.05.2024 03:55 13,6 C 96 % 1017,3 hPa 0,0 mm 0,0 km/h (0 Bft) N 0 0 min 0,000 mm 0,0 UV-I 0 W/m 13,0 C 13,6 C 0,0 km/h (0 Bft) 96,49 %
26.05.2024 03:50 13,7 C 95 % 1017,4 hPa 0,0 mm 0,0 km/h (0 Bft) N 0 0 min 0,000 mm 0,0 UV-I 0 W/m 12,9 C 13,7 C 0,0 km/h (0 Bft) 96,49 %
26.05.2024 03:45 13,9 C 95 % 1017,4 hPa 0,0 mm 0,0 km/h (0 Bft) W-SW 247 0 min 0,000 mm 0,0 UV-I 0 W/m 13,1 C 13,9 C 3,2 km/h (1 Bft) 100,00 %
26.05.2024 03:40 14,1 C 95 % 1017,4 hPa 0,0 mm 0,0 km/h (0 Bft) W-SW 247 0 min 0,000 mm 0,0 UV-I 0 W/m 13,3 C 14,1 C 3,2 km/h (1 Bft) 100,00 %
26.05.2024 03:35 14,1 C 96 % 1017,5 hPa 0,0 mm 0,0 km/h (0 Bft) N 0 0 min 0,000 mm 0,0 UV-I 0 W/m 13,5 C 14,1 C 0,0 km/h (0 Bft) 100,00 %
26.05.2024 03:30 14,2 C 96 % 1017,5 hPa 0,0 mm 0,0 km/h (0 Bft) W-SW 247 0 min 0,000 mm 0,0 UV-I 0 W/m 13,6 C 14,2 C 1,6 km/h (1 Bft) 100,00 %
26.05.2024 03:25 14,2 C 96 % 1017,7 hPa 0,0 mm 0,0 km/h (0 Bft) W-SW 247 0 min 0,000 mm 0,0 UV-I 0 W/m 13,6 C 14,2 C 1,6 km/h (1 Bft) 99,12 %
26.05.2024 03:20 14,2 C 96 % 1017,7 hPa 0,0 mm 0,0 km/h (0 Bft) W-SW 247 0 min 0,000 mm 0,0 UV-I 0 W/m 13,6 C 14,2 C 1,6 km/h (1 Bft) 98,25 %
26.05.2024 03:15 14,1 C 96 % 1017,8 hPa 0,0 mm 0,0 km/h (0 Bft) N 0 0 min 0,000 mm 0,0 UV-I 0 W/m 13,5 C 14,1 C 0,0 km/h (0 Bft) 99,12 %
26.05.2024 03:10 14,1 C 96 % 1017,7 hPa 0,0 mm 1,6 km/h (1 Bft) W-SW 247 0 min 0,000 mm 0,0 UV-I 0 W/m 13,5 C 14,1 C 4,8 km/h (1 Bft) 99,12 %
26.05.2024 03:05 14,2 C 96 % 1017,7 hPa 0,0 mm 1,6 km/h (1 Bft) W-SW 247 0 min 0,000 mm 0,0 UV-I 0 W/m 13,6 C 14,2 C 4,8 km/h (1 Bft) 99,12 %
26.05.2024 03:00 14,2 C 96 % 1017,7 hPa 0,0 mm 0,0 km/h (0 Bft) W-SW 247 0 min 0,000 mm 0,0 UV-I 0 W/m 13,6 C 14,2 C 3,2 km/h (1 Bft) 98,25 %
26.05.2024 02:55 14,4 C 96 % 1017,7 hPa 0,0 mm 1,6 km/h (1 Bft) W-SW 247 0 min 0,000 mm 0,0 UV-I 0 W/m 13,8 C 14,4 C 4,8 km/h (1 Bft) 97,37 %
26.05.2024 02:50 14,4 C 96 % 1017,5 hPa 0,0 mm 0,0 km/h (0 Bft) S 180 0 min 0,000 mm 0,0 UV-I 0 W/m 13,8 C 14,4 C 3,2 km/h (1 Bft) 96,49 %
26.05.2024 02:45 14,4 C 96 % 1017,7 hPa 0,0 mm 0,0 km/h (0 Bft) N 0 0 min 0,000 mm 0,0 UV-I 0 W/m 13,8 C 14,4 C 0,0 km/h (0 Bft) 100,00 %
26.05.2024 02:40 14,5 C 96 % 1017,6 hPa 0,0 mm 0,0 km/h (0 Bft) N 0 0 min 0,000 mm 0,0 UV-I 0 W/m 13,9 C 14,5 C 0,0 km/h (0 Bft) 99,12 %
26.05.2024 02:35 14,6 C 96 % 1017,7 hPa 0,0 mm 0,0 km/h (0 Bft) S 180 0 min 0,000 mm 0,0 UV-I 0 W/m 14,0 C 14,6 C 4,8 km/h (1 Bft) 99,12 %
26.05.2024 02:30 14,4 C 97 % 1017,7 hPa 0,0 mm 1,6 km/h (1 Bft) S 180 0 min 0,000 mm 0,0 UV-I 0 W/m 13,9 C 14,4 C 4,8 km/h (1 Bft) 100,00 %
26.05.2024 02:25 14,2 C 97 % 1017,8 hPa 0,0 mm 4,8 km/h (1 Bft) S-SW 202 0 min 0,000 mm 0,0 UV-I 0 W/m 13,7 C 14,2 C 17,7 km/h (3 Bft) 99,12 %
26.05.2024 02:20 13,7 C 96 % 1017,3 hPa 0,0 mm 0,0 km/h (0 Bft) NO 45 0 min 0,000 mm 0,0 UV-I 0 W/m 13,1 C 13,7 C 4,8 km/h (1 Bft) 98,25 %
26.05.2024 02:15 13,8 C 96 % 1017,1 hPa 0,0 mm 0,0 km/h (0 Bft) N 0 0 min 0,000 mm 0,0 UV-I 0 W/m 13,2 C 13,8 C 0,0 km/h (0 Bft) 99,12 %
26.05.2024 02:10 13,9 C 96 % 1017,3 hPa 0,0 mm 0,0 km/h (0 Bft) N 0 0 min 0,000 mm 0,0 UV-I 0 W/m 13,3 C 13,9 C 0,0 km/h (0 Bft) 100,00 %
26.05.2024 02:05 14,1 C 96 % 1017,2 hPa 0,0 mm 0,0 km/h (0 Bft) N 0 0 min 0,000 mm 0,0 UV-I 0 W/m 13,5 C 14,1 C 0,0 km/h (0 Bft) 97,37 %
26.05.2024 02:00 14,1 C 96 % 1017,2 hPa 0,0 mm 0,0 km/h (0 Bft) N 0 0 min 0,000 mm 0,0 UV-I 0 W/m 13,5 C 14,1 C 0,0 km/h (0 Bft) 94,74 %
26.05.2024 01:55 14,2 C 96 % 1017,3 hPa 0,0 mm 0,0 km/h (0 Bft) N 0 0 min 0,000 mm 0,0 UV-I 0 W/m 13,6 C 14,2 C 0,0 km/h (0 Bft) 98,25 %
26.05.2024 01:50 14,2 C 96 % 1017,3 hPa 0,0 mm 0,0 km/h (0 Bft) N 0 0 min 0,000 mm 0,0 UV-I 0 W/m 13,6 C 14,2 C 0,0 km/h (0 Bft) 97,37 %
26.05.2024 01:45 14,2 C 96 % 1017,2 hPa 0,0 mm 0,0 km/h (0 Bft) N 0 0 min 0,000 mm 0,0 UV-I 0 W/m 13,6 C 14,2 C 0,0 km/h (0 Bft) 99,12 %
26.05.2024 01:40 14,2 C 96 % 1017,2 hPa 0,0 mm 0,0 km/h (0 Bft) N 0 0 min 0,000 mm 0,0 UV-I 0 W/m 13,6 C 14,2 C 0,0 km/h (0 Bft) 100,00 %
26.05.2024 01:35 14,3 C 96 % 1017,3 hPa 0,0 mm 0,0 km/h (0 Bft) N 0 0 min 0,000 mm 0,0 UV-I 0 W/m 13,7 C 14,3 C 0,0 km/h (0 Bft) 99,12 %
26.05.2024 01:30 14,4 C 96 % 1017,2 hPa 0,0 mm 0,0 km/h (0 Bft) N 0 0 min 0,000 mm 0,0 UV-I 0 W/m 13,8 C 14,4 C 0,0 km/h (0 Bft) 99,12 %
26.05.2024 01:25 14,5 C 95 % 1017,4 hPa 0,0 mm 0,0 km/h (0 Bft) N 0 0 min 0,000 mm 0,0 UV-I 0 W/m 13,7 C 14,5 C 0,0 km/h (0 Bft) 100,00 %
26.05.2024 01:20 14,4 C 96 % 1017,4 hPa 0,0 mm 0,0 km/h (0 Bft) NO 45 0 min 0,000 mm 0,0 UV-I 0 W/m 13,8 C 14,4 C 4,8 km/h (1 Bft) 99,12 %
26.05.2024 01:15 14,4 C 96 % 1017,3 hPa 0,0 mm 0,0 km/h (0 Bft) NO 45 0 min 0,000 mm 0,0 UV-I 0 W/m 13,8 C 14,4 C 4,8 km/h (1 Bft) 100,00 %
26.05.2024 01:10 14,2 C 96 % 1017,5 hPa 0,0 mm 0,0 km/h (0 Bft) NO 45 0 min 0,000 mm 0,0 UV-I 0 W/m 13,6 C 14,2 C 1,6 km/h (1 Bft) 100,00 %
26.05.2024 01:05 14,2 C 96 % 1017,5 hPa 0,0 mm 1,6 km/h (1 Bft) NO 45 0 min 0,000 mm 0,0 UV-I 0 W/m 13,6 C 14,2 C 4,8 km/h (1 Bft) 98,25 %
26.05.2024 01:00 14,2 C 96 % 1017,4 hPa 0,0 mm 0,0 km/h (0 Bft) NO 45 0 min 0,000 mm 0,0 UV-I 0 W/m 13,6 C 14,2 C 1,6 km/h (1 Bft) 97,37 %
_ Min-Zeit 05:05 12:20 23:15 - 01:00 - - - - - - 05:05 05:05 01:25 08:20
Minimum _ 13,3 C 67 % 1014,6 hPa - 0,0 km/h (0 Bft) - - - - - - 12,7 C 13,3 C 0,0 km/h (0 Bft) 87,72 %
_ Max-Zeit 14:00 02:25 07:45 08:05 16:35 - - 12:40 13:05 13:50 13:55 13:15 14:00 23:45 01:10
Maximum _ 24,3 C 97 % 1018,2 hPa 0,4 mm 14,7 km/h
N-NO (3 Bft)
- - 10 min 0,431 mm 4,8 UV-I 934 W/m 18,7 C 23,9 C 25,7 km/h
S (4 Bft)
100,00 %
Durchschnitt _ 16,8 C 90 % 1016,5 hPa #3,4 mm 1,6 km/h (1 Bft) N - #0 min. #0,000 mm 0,0 UV-I 0 W/m 15,1 C 16,8 C 4,7 km/h (1 Bft) 98,46 %
Alle Angaben ohne Gewhr !